Time,TemperatureF,DewpointF,PressureIn,WindDirection,WindDirectionDegrees,WindSpeedMPH,WindSpeedGustMPH,Humidity,HourlyPrecipIn,Conditions,Clouds,dailyrainin,SoftwareType,DateUTC
2013-12-02 00:00:00,48.6,33.1,29.96,North,0,0.0,10.0,55,0.00,,,0.00,Wunderground v.1.13,2013-12-02 05:00:00,
2013-12-02 00:05:00,48.5,33.1,29.95,North,0,0.0,10.0,55,0.00,,,0.00,Wunderground v.1.13,2013-12-02 05:05:00,
2013-12-02 00:10:00,48.3,32.9,29.95,North,0,0.0,10.0,55,0.00,,,0.00,Wunderground v.1.13,2013-12-02 05:10:00,
2013-12-02 00:15:00,48.2,32.8,29.95,North,0,0.0,10.0,55,0.00,,,0.00,Wunderground v.1.13,2013-12-02 05:15:00,
2013-12-02 00:20:00,48.0,32.6,29.95,WSW,253,0.0,10.0,55,0.00,,,0.00,Wunderground v.1.13,2013-12-02 05:20:00,
2013-12-02 00:25:00,47.9,32.5,29.95,WSW,251,0.0,10.0,55,0.00,,,0.00,Wunderground v.1.13,2013-12-02 05:25:00,
2013-12-02 00:30:00,47.9,32.9,29.95,WSW,253,0.0,10.0,56,0.00,,,0.00,Wunderground v.1.13,2013-12-02 05:30:00,
2013-12-02 00:35:00,47.7,32.8,29.94,WSW,251,0.0,10.0,56,0.00,,,0.00,Wunderground v.1.13,2013-12-02 05:35:00,
2013-12-02 00:40:00,47.7,32.8,29.94,WSW,251,0.0,10.0,56,0.00,,,0.00,Wunderground v.1.13,2013-12-02 05:40:00,
2013-12-02 00:50:00,47.6,33.1,29.93,SE,127,0.0,10.0,57,0.00,,,0.00,Wunderground v.1.13,2013-12-02 05:50:00,
2013-12-02 00:55:00,47.6,33.1,29.93,SE,124,0.0,10.0,57,0.00,,,0.00,Wunderground v.1.13,2013-12-02 05:55:00,
2013-12-02 01:00:00,47.4,32.9,29.93,SE,126,0.0,10.0,57,0.00,,,0.00,Wunderground v.1.13,2013-12-02 06:00:00,
2013-12-02 01:05:00,47.4,32.9,29.93,SE,124,0.0,10.0,57,0.00,,,0.00,Wunderground v.1.13,2013-12-02 06:05:00,
2013-12-02 01:10:00,47.3,32.8,29.93,SE,126,1.0,1.0,57,0.00,,,0.00,Wunderground v.1.13,2013-12-02 06:10:00,
2013-12-02 01:20:00,47.3,32.8,29.93,ESE,121,0.0,10.0,57,0.00,,,0.00,Wunderground v.1.13,2013-12-02 06:20:00,
2013-12-02 01:25:00,47.3,32.8,29.93,ESE,121,0.0,10.0,57,0.00,,,0.00,Wunderground v.1.13,2013-12-02 06:25:00,
2013-12-02 01:30:00,47.3,32.8,29.93,ESE,121,0.0,10.0,57,0.00,,,0.00,Wunderground v.1.13,2013-12-02 06:30:00,
2013-12-02 01:35:00,47.1,32.6,29.93,ESE,121,0.0,10.0,57,0.00,,,0.00,Wunderground v.1.13,2013-12-02 06:35:00,
2013-12-02 01:40:00,47.1,33.1,29.93,ESE,121,0.0,10.0,58,0.00,,,0.00,Wunderground v.1.13,2013-12-02 06:40:00,
2013-12-02 01:45:00,47.1,33.1,29.93,ESE,121,0.0,10.0,58,0.00,,,0.00,Wunderground v.1.13,2013-12-02 06:45:00,
2013-12-02 01:55:00,47.0,33.0,29.93,ESE,121,0.0,10.0,58,0.00,,,0.00,Wunderground v.1.13,2013-12-02 06:55:00,
2013-12-02 02:00:00,47.0,33.0,29.93,ESE,121,0.0,10.0,58,0.00,,,0.00,Wunderground v.1.13,2013-12-02 07:00:00,
2013-12-02 02:05:00,46.8,32.8,29.93,ESE,121,0.0,10.0,58,0.00,,,0.00,Wunderground v.1.13,2013-12-02 07:05:00,
2013-12-02 02:10:00,46.8,33.2,29.93,ESE,121,0.0,10.0,59,0.00,,,0.00,Wunderground v.1.13,2013-12-02 07:10:00,
2013-12-02 02:15:00,46.8,33.6,29.93,ESE,121,0.0,10.0,60,0.00,,,0.00,Wunderground v.1.13,2013-12-02 07:15:00,
2013-12-02 02:20:00,46.7,33.5,29.93,ESE,121,0.0,10.0,60,0.00,,,0.00,Wunderground v.1.13,2013-12-02 07:20:00,
2013-12-02 02:25:00,46.5,32.9,29.93,ESE,121,0.0,10.0,59,0.00,,,0.00,Wunderground v.1.13,2013-12-02 07:25:00,
2013-12-02 02:30:00,46.5,32.9,29.93,ESE,121,0.0,10.0,59,0.00,,,0.00,Wunderground v.1.13,2013-12-02 07:30:00,
2013-12-02 02:35:00,46.5,32.9,29.92,ESE,121,0.0,10.0,59,0.00,,,0.00,Wunderground v.1.13,2013-12-02 07:35:00,
2013-12-02 02:40:00,46.5,32.9,29.92,ESE,121,0.0,10.0,59,0.00,,,0.00,Wunderground v.1.13,2013-12-02 07:40:00,
2013-12-02 02:45:00,46.5,32.9,29.92,ESE,121,0.0,10.0,59,0.00,,,0.00,Wunderground v.1.13,2013-12-02 07:45:00,
2013-12-02 02:55:00,46.4,32.8,29.91,ESE,121,0.0,10.0,59,0.00,,,0.00,Wunderground v.1.13,2013-12-02 07:55:00,
2013-12-02 03:00:00,46.4,32.8,29.91,ESE,121,0.0,10.0,59,0.00,,,0.00,Wunderground v.1.13,2013-12-02 08:00:00,
2013-12-02 03:05:00,46.4,32.8,29.91,ESE,121,0.0,10.0,59,0.00,,,0.00,Wunderground v.1.13,2013-12-02 08:05:00,
2013-12-02 03:10:00,46.4,32.8,29.91,ESE,121,0.0,10.0,59,0.00,,,0.00,Wunderground v.1.13,2013-12-02 08:10:00,
2013-12-02 03:15:00,46.4,33.7,29.91,ESE,121,0.0,10.0,61,0.00,,,0.00,Wunderground v.1.13,2013-12-02 08:15:00,
2013-12-02 03:20:00,46.4,33.3,29.91,ESE,121,0.0,10.0,60,0.00,,,0.00,Wunderground v.1.13,2013-12-02 08:20:00,
2013-12-02 03:30:00,46.2,33.5,29.91,ESE,121,0.0,10.0,61,0.00,,,0.00,Wunderground v.1.13,2013-12-02 08:30:00,
2013-12-02 03:35:00,46.1,33.4,29.90,ESE,121,0.0,10.0,61,0.00,,,0.00,Wunderground v.1.13,2013-12-02 08:35:00,
2013-12-02 03:40:00,46.1,33.8,29.90,ESE,121,0.0,10.0,62,0.00,,,0.00,Wunderground v.1.13,2013-12-02 08:40:00,
2013-12-02 03:45:00,46.0,34.1,29.90,ESE,121,0.0,10.0,63,0.00,,,0.00,Wunderground v.1.13,2013-12-02 08:45:00,
2013-12-02 03:50:00,45.8,33.9,29.91,ESE,121,0.0,10.0,63,0.00,,,0.00,Wunderground v.1.13,2013-12-02 08:50:00,
2013-12-02 03:55:00,45.7,34.2,29.91,ESE,121,0.0,10.0,64,0.00,,,0.00,Wunderground v.1.13,2013-12-02 08:55:00,
2013-12-02 04:00:00,45.5,34.0,29.91,ESE,121,0.0,10.0,64,0.00,,,0.00,Wunderground v.1.13,2013-12-02 09:00:00,
2013-12-02 04:05:00,45.5,33.6,29.90,ESE,121,0.0,10.0,63,0.00,,,0.00,Wunderground v.1.13,2013-12-02 09:05:00,
2013-12-02 04:10:00,45.5,34.4,29.90,ESE,121,0.0,10.0,65,0.00,,,0.00,Wunderground v.1.13,2013-12-02 09:10:00,
2013-12-02 04:15:00,45.4,34.7,29.90,ESE,121,0.0,10.0,66,0.00,,,0.00,Wunderground v.1.13,2013-12-02 09:15:00,
2013-12-02 04:20:00,45.4,34.3,29.90,ESE,121,0.0,10.0,65,0.00,,,0.00,Wunderground v.1.13,2013-12-02 09:20:00,
2013-12-02 04:30:00,45.2,34.1,29.90,ESE,121,0.0,10.0,65,0.00,,,0.00,Wunderground v.1.13,2013-12-02 09:30:00,
2013-12-02 04:35:00,45.1,34.0,29.89,ESE,121,0.0,10.0,65,0.00,,,0.00,Wunderground v.1.13,2013-12-02 09:35:00,
2013-12-02 04:40:00,44.9,33.8,29.89,ESE,121,0.0,10.0,65,0.00,,,0.00,Wunderground v.1.13,2013-12-02 09:40:00,
2013-12-02 04:45:00,44.9,34.2,29.89,ESE,121,0.0,10.0,66,0.00,,,0.00,Wunderground v.1.13,2013-12-02 09:45:00,
2013-12-02 04:50:00,44.9,34.6,29.89,ESE,121,0.0,10.0,67,0.00,,,0.00,Wunderground v.1.13,2013-12-02 09:50:00,
2013-12-02 04:55:00,44.8,34.9,29.89,ESE,121,0.0,10.0,68,0.00,,,0.00,Wunderground v.1.13,2013-12-02 09:55:00,
2013-12-02 05:05:00,44.6,34.7,29.89,ESE,121,0.0,10.0,68,0.00,,,0.00,Wunderground v.1.13,2013-12-02 10:05:00,
2013-12-02 05:10:00,44.6,35.1,29.89,ESE,121,0.0,10.0,69,0.00,,,0.00,Wunderground v.1.13,2013-12-02 10:10:00,
2013-12-02 05:15:00,44.5,35.0,29.89,ESE,121,0.0,10.0,69,0.00,,,0.00,Wunderground v.1.13,2013-12-02 10:15:00,
2013-12-02 05:20:00,44.5,35.3,29.89,ESE,121,0.0,10.0,70,0.00,,,0.00,Wunderground v.1.13,2013-12-02 10:20:00,
2013-12-02 05:25:00,44.2,35.0,29.89,ESE,121,0.0,10.0,70,0.00,,,0.00,Wunderground v.1.13,2013-12-02 10:25:00,
2013-12-02 05:35:00,44.1,35.3,29.89,ESE,121,0.0,10.0,71,0.00,,,0.00,Wunderground v.1.13,2013-12-02 10:35:00,
2013-12-02 05:40:00,44.1,35.3,29.89,ESE,121,0.0,10.0,71,0.00,,,0.00,Wunderground v.1.13,2013-12-02 10:40:00,
2013-12-02 05:45:00,43.9,34.7,29.89,ESE,121,0.0,10.0,70,0.00,,,0.00,Wunderground v.1.13,2013-12-02 10:45:00,
2013-12-02 05:50:00,43.9,34.7,29.89,ESE,121,0.0,10.0,70,0.00,,,0.00,Wunderground v.1.13,2013-12-02 10:50:00,
2013-12-02 05:55:00,43.9,34.7,29.89,ESE,121,0.0,10.0,70,0.00,,,0.00,Wunderground v.1.13,2013-12-02 10:55:00,
2013-12-02 06:00:00,43.9,35.1,29.89,ESE,121,0.0,10.0,71,0.00,,,0.00,Wunderground v.1.13,2013-12-02 11:00:00,
2013-12-02 06:05:00,43.8,35.0,29.89,North,6,0.0,10.0,71,0.00,,,0.00,Wunderground v.1.13,2013-12-02 11:05:00,
2013-12-02 06:10:00,43.3,33.8,29.89,NE,40,2.0,10.0,69,0.00,,,0.00,Wunderground v.1.13,2013-12-02 11:10:00,
2013-12-02 06:15:00,43.1,34.0,29.89,ENE,64,3.0,3.0,70,0.00,,,0.00,Wunderground v.1.13,2013-12-02 11:15:00,
2013-12-02 06:20:00,42.9,33.8,29.89,NE,55,2.0,2.0,70,0.00,,,0.00,Wunderground v.1.13,2013-12-02 11:20:00,
2013-12-02 06:25:00,42.8,33.7,29.89,NE,55,1.0,1.0,70,0.00,,,0.00,Wunderground v.1.13,2013-12-02 11:25:00,
2013-12-02 06:30:00,42.8,33.7,29.89,NE,55,0.0,10.0,70,0.00,,,0.00,Wunderground v.1.13,2013-12-02 11:30:00,
2013-12-02 06:40:00,42.8,33.7,29.89,NE,55,0.0,10.0,70,0.00,,,0.00,Wunderground v.1.13,2013-12-02 11:40:00,
2013-12-02 06:45:00,42.6,33.5,29.89,NE,55,0.0,10.0,70,0.00,,,0.00,Wunderground v.1.13,2013-12-02 11:45:00,
2013-12-02 06:50:00,42.6,33.5,29.89,NE,55,0.0,10.0,70,0.00,,,0.00,Wunderground v.1.13,2013-12-02 11:50:00,
2013-12-02 06:55:00,42.6,33.9,29.89,NE,55,0.0,10.0,71,0.00,,,0.00,Wunderground v.1.13,2013-12-02 11:55:00,
2013-12-02 07:00:00,42.6,34.2,29.89,NE,55,0.0,10.0,72,0.00,,,0.00,Wunderground v.1.13,2013-12-02 12:00:00,
2013-12-02 07:10:00,42.6,35.2,29.89,NE,55,0.0,10.0,75,0.00,,,0.00,Wunderground v.1.13,2013-12-02 12:10:00,
2013-12-02 07:15:00,42.6,35.2,29.89,NE,55,0.0,10.0,75,0.00,,,0.00,Wunderground v.1.13,2013-12-02 12:15:00,
2013-12-02 07:20:00,42.5,35.1,29.89,NE,55,0.0,10.0,75,0.00,,,0.00,Wunderground v.1.13,2013-12-02 12:20:00,
2013-12-02 07:25:00,42.5,35.5,29.89,NE,52,0.0,10.0,76,0.00,,,0.00,Wunderground v.1.13,2013-12-02 12:25:00,
2013-12-02 07:30:00,42.3,35.3,29.89,NE,51,0.0,10.0,76,0.00,,,0.00,Wunderground v.1.13,2013-12-02 12:30:00,
2013-12-02 07:40:00,42.3,35.3,29.89,NE,51,0.0,10.0,76,0.00,,,0.00,Wunderground v.1.13,2013-12-02 12:40:00,
2013-12-02 07:45:00,42.2,35.2,29.89,NE,51,0.0,10.0,76,0.00,,,0.00,Wunderground v.1.13,2013-12-02 12:45:00,
2013-12-02 07:50:00,42.2,35.2,29.89,NE,51,0.0,10.0,76,0.00,,,0.00,Wunderground v.1.13,2013-12-02 12:50:00,
2013-12-02 07:55:00,42.2,35.2,29.89,NE,51,0.0,10.0,76,0.00,,,0.00,Wunderground v.1.13,2013-12-02 12:55:00,
2013-12-02 08:00:00,42.1,35.1,29.89,NE,49,0.0,10.0,76,0.00,,,0.00,Wunderground v.1.13,2013-12-02 13:00:00,
2013-12-02 08:05:00,42.1,35.1,29.89,NNE,23,1.0,1.0,76,0.00,,,0.00,Wunderground v.1.13,2013-12-02 13:05:00,
2013-12-02 08:15:00,41.8,34.8,29.89,WNW,284,1.0,10.0,76,0.00,,,0.00,Wunderground v.1.13,2013-12-02 13:15:00,
2013-12-02 08:20:00,41.8,34.8,29.89,West,281,1.0,10.0,76,0.00,,,0.00,Wunderground v.1.13,2013-12-02 13:20:00,
2013-12-02 08:25:00,41.6,34.6,29.89,West,281,1.0,1.0,76,0.00,,,0.00,Wunderground v.1.13,2013-12-02 13:25:00,
2013-12-02 08:30:00,41.6,34.6,29.89,West,281,0.0,10.0,76,0.00,,,0.00,Wunderground v.1.13,2013-12-02 13:30:00,
2013-12-02 08:35:00,41.6,34.6,29.89,West,281,0.0,10.0,76,0.00,,,0.00,Wunderground v.1.13,2013-12-02 13:35:00,
2013-12-02 08:45:00,41.6,34.6,29.89,West,281,0.0,10.0,76,0.00,,,0.00,Wunderground v.1.13,2013-12-02 13:45:00,
2013-12-02 08:50:00,41.8,34.8,29.89,West,281,0.0,10.0,76,0.00,,,0.00,Wunderground v.1.13,2013-12-02 13:50:00,
2013-12-02 08:55:00,41.8,34.8,29.89,West,281,0.0,10.0,76,0.00,,,0.00,Wunderground v.1.13,2013-12-02 13:55:00,
2013-12-02 09:00:00,41.9,34.9,29.89,West,281,0.0,10.0,76,0.00,,,0.00,Wunderground v.1.13,2013-12-02 14:00:00,
2013-12-02 09:05:00,41.9,34.9,29.90,West,281,0.0,10.0,76,0.00,,,0.00,Wunderground v.1.13,2013-12-02 14:05:00,
2013-12-02 09:10:00,42.1,34.7,29.90,West,281,0.0,10.0,75,0.00,,,0.00,Wunderground v.1.13,2013-12-02 14:10:00,
2013-12-02 09:20:00,42.3,34.9,29.89,West,278,0.0,10.0,75,0.00,,,0.00,Wunderground v.1.13,2013-12-02 14:20:00,
2013-12-02 09:25:00,42.6,35.2,29.89,West,278,0.0,10.0,75,0.00,,,0.00,Wunderground v.1.13,2013-12-02 14:25:00,
2013-12-02 09:30:00,42.9,34.8,29.89,West,278,0.0,10.0,73,0.00,,,0.00,Wunderground v.1.13,2013-12-02 14:30:00,
2013-12-02 09:35:00,43.1,34.7,29.89,West,278,0.0,10.0,72,0.00,,,0.00,Wunderground v.1.13,2013-12-02 14:35:00,
2013-12-02 09:40:00,43.2,34.8,29.89,West,278,0.0,10.0,72,0.00,,,0.00,Wunderground v.1.13,2013-12-02 14:40:00,
2013-12-02 09:45:00,43.3,34.9,29.89,West,278,0.0,10.0,72,0.00,,,0.00,Wunderground v.1.13,2013-12-02 14:45:00,
2013-12-02 09:50:00,43.5,35.1,29.89,West,265,0.0,10.0,72,0.00,,,0.00,Wunderground v.1.13,2013-12-02 14:50:00,
2013-12-02 09:55:00,43.6,34.8,29.89,West,265,0.0,10.0,71,0.00,,,0.00,Wunderground v.1.13,2013-12-02 14:55:00,
2013-12-02 10:00:00,43.9,35.1,29.89,West,265,0.0,10.0,71,0.00,,,0.00,Wunderground v.1.13,2013-12-02 15:00:00,
2013-12-02 10:05:00,44.1,34.9,29.88,West,265,0.0,10.0,70,0.00,,,0.00,Wunderground v.1.13,2013-12-02 15:05:00,
2013-12-02 10:10:00,44.3,34.8,29.88,West,265,0.0,10.0,69,0.00,,,0.00,Wunderground v.1.13,2013-12-02 15:10:00,
2013-12-02 10:20:00,44.8,35.2,29.88,West,263,0.0,10.0,69,0.00,,,0.00,Wunderground v.1.13,2013-12-02 15:20:00,
2013-12-02 10:25:00,44.9,35.3,29.88,West,260,0.0,10.0,69,0.00,,,0.00,Wunderground v.1.13,2013-12-02 15:25:00,
2013-12-02 10:30:00,45.1,35.5,29.88,West,260,0.0,10.0,69,0.00,,,0.00,Wunderground v.1.13,2013-12-02 15:30:00,
2013-12-02 10:35:00,45.2,35.3,29.89,West,260,0.0,10.0,68,0.00,,,0.00,Wunderground v.1.13,2013-12-02 15:35:00,
2013-12-02 10:40:00,45.4,35.1,29.89,West,260,0.0,10.0,67,0.00,,,0.00,Wunderground v.1.13,2013-12-02 15:40:00,
2013-12-02 10:45:00,45.5,34.8,29.89,West,260,0.0,10.0,66,0.00,,,0.00,Wunderground v.1.13,2013-12-02 15:45:00,
2013-12-02 10:55:00,46.1,35.0,29.89,West,260,0.0,10.0,65,0.00,,,0.00,Wunderground v.1.13,2013-12-02 15:55:00,
2013-12-02 11:00:00,46.5,35.4,29.89,West,260,0.0,10.0,65,0.00,,,0.00,Wunderground v.1.13,2013-12-02 16:00:00,
2013-12-02 11:05:00,46.8,34.9,29.89,West,260,0.0,10.0,63,0.00,,,0.00,Wunderground v.1.13,2013-12-02 16:05:00,
2013-12-02 11:10:00,47.1,34.7,29.89,West,260,0.0,10.0,62,0.00,,,0.00,Wunderground v.1.13,2013-12-02 16:10:00,
2013-12-02 11:15:00,47.6,35.2,29.89,West,260,0.0,10.0,62,0.00,,,0.00,Wunderground v.1.13,2013-12-02 16:15:00,
2013-12-02 11:25:00,48.3,35.5,29.88,West,260,0.0,10.0,61,0.00,,,0.00,Wunderground v.1.13,2013-12-02 16:25:00,
2013-12-02 11:30:00,48.5,35.2,29.88,West,260,0.0,10.0,60,0.00,,,0.00,Wunderground v.1.13,2013-12-02 16:30:00,
2013-12-02 11:35:00,48.8,35.1,29.87,West,260,0.0,10.0,59,0.00,,,0.00,Wunderground v.1.13,2013-12-02 16:35:00,
2013-12-02 11:45:00,49.1,35.4,29.87,West,260,0.0,10.0,59,0.00,,,0.00,Wunderground v.1.13,2013-12-02 16:45:00,
2013-12-02 11:50:00,49.2,35.5,29.86,West,260,0.0,10.0,59,0.00,,,0.00,Wunderground v.1.13,2013-12-02 16:50:00,
2013-12-02 11:55:00,49.4,35.2,29.86,West,260,0.0,10.0,58,0.00,,,0.00,Wunderground v.1.13,2013-12-02 16:55:00,
2013-12-02 12:00:00,49.6,35.4,29.86,West,260,0.0,10.0,58,0.00,,,0.00,Wunderground v.1.13,2013-12-02 17:00:00,
2013-12-02 12:10:00,49.9,35.3,29.85,West,260,0.0,10.0,57,0.00,,,0.00,Wunderground v.1.13,2013-12-02 17:10:00,
2013-12-02 12:15:00,50.1,35.4,29.85,West,260,0.0,10.0,57,0.00,,,0.00,Wunderground v.1.13,2013-12-02 17:15:00,
2013-12-02 12:20:00,50.4,35.3,29.84,West,260,0.0,10.0,56,0.00,,,0.00,Wunderground v.1.13,2013-12-02 17:20:00,
2013-12-02 12:25:00,50.7,35.6,29.84,West,260,0.0,10.0,56,0.00,,,0.00,Wunderground v.1.13,2013-12-02 17:25:00,
2013-12-02 12:30:00,50.8,35.7,29.84,West,260,0.0,10.0,56,0.00,,,0.00,Wunderground v.1.13,2013-12-02 17:30:00,
2013-12-02 12:35:00,51.0,35.4,29.84,West,260,0.0,10.0,55,0.00,,,0.00,Wunderground v.1.13,2013-12-02 17:35:00,
2013-12-02 12:40:00,51.0,34.9,29.84,West,260,0.0,10.0,54,0.00,,,0.00,Wunderground v.1.13,2013-12-02 17:40:00,
2013-12-02 12:45:00,51.1,35.0,29.84,West,260,0.0,10.0,54,0.00,,,0.00,Wunderground v.1.13,2013-12-02 17:45:00,
2013-12-02 12:50:00,51.3,35.7,29.82,West,260,0.0,10.0,55,0.00,,,0.00,Wunderground v.1.13,2013-12-02 17:50:00,
2013-12-02 13:00:00,51.6,35.9,29.82,West,260,0.0,10.0,55,0.00,,,0.00,Wunderground v.1.13,2013-12-02 18:00:00,
2013-12-02 13:05:00,51.6,35.9,29.82,West,260,0.0,10.0,55,0.00,,,0.00,Wunderground v.1.13,2013-12-02 18:05:00,
2013-12-02 13:10:00,51.6,35.5,29.82,West,260,0.0,10.0,54,0.00,,,0.00,Wunderground v.1.13,2013-12-02 18:10:00,
2013-12-02 13:15:00,51.6,35.5,29.82,West,260,0.0,10.0,54,0.00,,,0.00,Wunderground v.1.13,2013-12-02 18:15:00,
2013-12-02 13:20:00,51.7,35.1,29.81,West,270,0.0,10.0,53,0.00,,,0.00,Wunderground v.1.13,2013-12-02 18:20:00,
2013-12-02 13:25:00,52.0,35.4,29.81,West,270,0.0,10.0,53,0.00,,,0.00,Wunderground v.1.13,2013-12-02 18:25:00,
2013-12-02 13:35:00,52.3,35.2,29.80,West,271,0.0,10.0,52,0.00,,,0.00,Wunderground v.1.13,2013-12-02 18:35:00,
2013-12-02 13:40:00,52.8,36.1,29.80,West,271,0.0,10.0,53,0.00,,,0.00,Wunderground v.1.13,2013-12-02 18:40:00,
2013-12-02 13:45:00,53.2,37.4,29.80,West,271,0.0,10.0,55,0.00,,,0.00,Wunderground v.1.13,2013-12-02 18:45:00,
2013-12-02 13:50:00,53.5,36.3,29.81,West,271,0.0,10.0,52,0.00,,,0.00,Wunderground v.1.13,2013-12-02 18:50:00,
2013-12-02 13:55:00,53.8,35.6,29.81,West,271,0.0,10.0,50,0.00,,,0.00,Wunderground v.1.13,2013-12-02 18:55:00,
2013-12-02 14:00:00,53.9,35.2,29.81,West,271,0.0,10.0,49,0.00,,,0.00,Wunderground v.1.13,2013-12-02 19:00:00,
2013-12-02 14:05:00,54.1,35.3,29.81,West,271,0.0,10.0,49,0.00,,,0.00,Wunderground v.1.13,2013-12-02 19:05:00,
2013-12-02 14:15:00,54.1,35.9,29.81,West,271,0.0,10.0,50,0.00,,,0.00,Wunderground v.1.13,2013-12-02 19:15:00,
2013-12-02 14:20:00,54.1,35.9,29.80,West,271,0.0,10.0,50,0.00,,,0.00,Wunderground v.1.13,2013-12-02 19:20:00,
2013-12-02 14:25:00,54.1,35.9,29.80,West,271,0.0,10.0,50,0.00,,,0.00,Wunderground v.1.13,2013-12-02 19:25:00,
2013-12-02 14:30:00,54.1,35.9,29.80,West,271,0.0,10.0,50,0.00,,,0.00,Wunderground v.1.13,2013-12-02 19:30:00,
2013-12-02 14:35:00,54.1,35.9,29.79,West,271,0.0,10.0,50,0.00,,,0.00,Wunderground v.1.13,2013-12-02 19:35:00,
2013-12-02 14:40:00,53.9,35.2,29.79,West,270,0.0,10.0,49,0.00,,,0.00,Wunderground v.1.13,2013-12-02 19:40:00,
2013-12-02 14:45:00,53.9,35.7,29.79,West,271,0.0,10.0,50,0.00,,,0.00,Wunderground v.1.13,2013-12-02 19:45:00,
2013-12-02 14:50:00,53.8,35.6,29.79,West,271,0.0,10.0,50,0.00,,,0.00,Wunderground v.1.13,2013-12-02 19:50:00,
2013-12-02 14:55:00,53.8,36.1,29.79,West,267,0.0,10.0,51,0.00,,,0.00,Wunderground v.1.13,2013-12-02 19:55:00,
2013-12-02 15:00:00,53.8,35.6,29.79,West,265,0.0,10.0,50,0.00,,,0.00,Wunderground v.1.13,2013-12-02 20:00:00,
2013-12-02 15:10:00,53.6,35.4,29.79,NNW,339,1.0,1.0,50,0.00,,,0.00,Wunderground v.1.13,2013-12-02 20:10:00,
2013-12-02 15:15:00,53.5,35.8,29.79,WNW,302,0.0,10.0,51,0.00,,,0.00,Wunderground v.1.13,2013-12-02 20:15:00,
2013-12-02 15:20:00,53.5,35.8,29.78,West,280,0.0,10.0,51,0.00,,,0.00,Wunderground v.1.13,2013-12-02 20:20:00,
2013-12-02 15:25:00,53.5,35.8,29.78,West,274,0.0,10.0,51,0.00,,,0.00,Wunderground v.1.13,2013-12-02 20:25:00,
2013-12-02 15:30:00,53.5,35.3,29.78,West,274,0.0,10.0,50,0.00,,,0.00,Wunderground v.1.13,2013-12-02 20:30:00,
2013-12-02 15:40:00,53.3,35.1,29.78,West,278,1.0,1.0,50,0.00,,,0.00,Wunderground v.1.13,2013-12-02 20:40:00,
2013-12-02 15:45:00,53.3,35.1,29.78,NNW,328,1.0,10.0,50,0.00,,,0.00,Wunderground v.1.13,2013-12-02 20:45:00,
2013-12-02 15:50:00,53.3,35.1,29.78,NNW,332,1.0,10.0,50,0.00,,,0.00,Wunderground v.1.13,2013-12-02 20:50:00,
2013-12-02 15:55:00,53.3,35.1,29.78,NNW,336,2.0,10.0,50,0.00,,,0.00,Wunderground v.1.13,2013-12-02 20:55:00,
2013-12-02 16:00:00,53.3,35.1,29.78,NNW,330,2.0,10.0,50,0.00,,,0.00,Wunderground v.1.13,2013-12-02 21:00:00,
2013-12-02 16:05:00,53.3,35.1,29.78,NNW,329,2.0,10.0,50,0.00,,,0.00,Wunderground v.1.13,2013-12-02 21:05:00,
2013-12-02 16:10:00,53.2,35.5,29.78,NNW,335,2.0,2.0,51,0.00,,,0.00,Wunderground v.1.13,2013-12-02 21:10:00,
2013-12-02 16:20:00,53.1,35.4,29.78,NNW,336,1.0,1.0,51,0.00,,,0.00,Wunderground v.1.13,2013-12-02 21:20:00,
2013-12-02 16:25:00,53.1,35.4,29.78,NNW,339,1.0,10.0,51,0.00,,,0.00,Wunderground v.1.13,2013-12-02 21:25:00,
2013-12-02 16:30:00,52.9,35.2,29.78,NW,306,1.0,1.0,51,0.00,,,0.00,Wunderground v.1.13,2013-12-02 21:30:00,
2013-12-02 16:35:00,52.9,35.2,29.78,NW,305,1.0,10.0,51,0.00,,,0.00,Wunderground v.1.13,2013-12-02 21:35:00,
2013-12-02 16:40:00,52.8,35.6,29.78,NW,304,0.0,10.0,52,0.00,,,0.00,Wunderground v.1.13,2013-12-02 21:40:00,
2013-12-02 16:45:00,52.8,35.6,29.78,NW,304,0.0,10.0,52,0.00,,,0.00,Wunderground v.1.13,2013-12-02 21:45:00,
2013-12-02 16:50:00,52.8,36.1,29.78,NW,304,0.0,10.0,53,0.00,,,0.00,Wunderground v.1.13,2013-12-02 21:50:00,
2013-12-02 16:55:00,52.6,35.9,29.78,NW,305,0.0,10.0,53,0.00,,,0.00,Wunderground v.1.13,2013-12-02 21:55:00,
2013-12-02 17:00:00,52.5,35.8,29.78,NW,304,0.0,10.0,53,0.00,,,0.00,Wunderground v.1.13,2013-12-02 22:00:00,
2013-12-02 17:05:00,52.3,35.7,29.78,WNW,302,0.0,10.0,53,0.00,,,0.00,Wunderground v.1.13,2013-12-02 22:05:00,
2013-12-02 17:15:00,52.2,36.0,29.78,WNW,302,0.0,10.0,54,0.00,,,0.00,Wunderground v.1.13,2013-12-02 22:15:00,
2013-12-02 17:20:00,52.2,36.0,29.78,WNW,302,0.0,10.0,54,0.00,,,0.00,Wunderground v.1.13,2013-12-02 22:20:00,
2013-12-02 17:25:00,52.0,36.3,29.78,WNW,302,0.0,10.0,55,0.00,,,0.00,Wunderground v.1.13,2013-12-02 22:25:00,
2013-12-02 17:30:00,52.0,36.3,29.78,WNW,302,0.0,10.0,55,0.00,,,0.00,Wunderground v.1.13,2013-12-02 22:30:00,
2013-12-02 17:35:00,51.9,36.2,29.79,WNW,302,0.0,10.0,55,0.00,,,0.00,Wunderground v.1.13,2013-12-02 22:35:00,
2013-12-02 17:40:00,51.9,36.2,29.79,WNW,302,0.0,10.0,55,0.00,,,0.00,Wunderground v.1.13,2013-12-02 22:40:00,
2013-12-02 17:50:00,51.7,36.0,29.79,WNW,302,0.0,10.0,55,0.00,,,0.00,Wunderground v.1.13,2013-12-02 22:50:00,
2013-12-02 17:55:00,51.7,36.0,29.79,WNW,302,0.0,10.0,55,0.00,,,0.00,Wunderground v.1.13,2013-12-02 22:55:00,
2013-12-02 18:00:00,51.6,35.9,29.79,WNW,302,0.0,10.0,55,0.00,,,0.00,Wunderground v.1.13,2013-12-02 23:00:00,
2013-12-02 18:05:00,51.6,35.9,29.79,WNW,302,0.0,10.0,55,0.00,,,0.00,Wunderground v.1.13,2013-12-02 23:05:00,
2013-12-02 18:10:00,51.6,35.9,29.79,WNW,302,0.0,10.0,55,0.00,,,0.00,Wunderground v.1.13,2013-12-02 23:10:00,
2013-12-02 18:15:00,51.6,35.9,29.79,WNW,302,0.0,10.0,55,0.00,,,0.00,Wunderground v.1.13,2013-12-02 23:15:00,
2013-12-02 18:20:00,51.6,35.9,29.79,WNW,302,0.0,10.0,55,0.00,,,0.00,Wunderground v.1.13,2013-12-02 23:20:00,
2013-12-02 18:25:00,51.4,35.8,29.79,WNW,302,1.0,1.0,55,0.00,,,0.00,Wunderground v.1.13,2013-12-02 23:25:00,
2013-12-02 18:30:00,51.4,36.2,29.79,WNW,302,1.0,1.0,56,0.00,,,0.00,Wunderground v.1.13,2013-12-02 23:30:00,
2013-12-02 18:35:00,51.4,36.2,29.79,WNW,302,0.0,10.0,56,0.00,,,0.00,Wunderground v.1.13,2013-12-02 23:35:00,
2013-12-02 18:40:00,51.4,36.2,29.79,NNW,332,1.0,1.0,56,0.00,,,0.00,Wunderground v.1.13,2013-12-02 23:40:00,
2013-12-02 18:50:00,51.3,36.1,29.79,NNW,336,1.0,10.0,56,0.00,,,0.00,Wunderground v.1.13,2013-12-02 23:50:00,
2013-12-02 18:55:00,51.1,35.9,29.79,WSW,258,1.0,1.0,56,0.00,,,0.00,Wunderground v.1.13,2013-12-02 23:55:00,
2013-12-02 19:00:00,51.1,36.4,29.79,WSW,258,1.0,1.0,57,0.00,,,0.00,Wunderground v.1.13,2013-12-03 00:00:00,
2013-12-02 19:05:00,51.0,36.3,29.80,WSW,258,0.0,10.0,57,0.00,,,0.00,Wunderground v.1.13,2013-12-03 00:05:00,
2013-12-02 19:10:00,50.8,36.1,29.80,WNW,294,0.0,10.0,57,0.00,,,0.00,Wunderground v.1.13,2013-12-03 00:10:00,
2013-12-02 19:15:00,50.8,36.5,29.80,WNW,295,0.0,10.0,58,0.00,,,0.00,Wunderground v.1.13,2013-12-03 00:15:00,
2013-12-02 19:25:00,50.5,36.3,29.80,WNW,295,0.0,10.0,58,0.00,,,0.00,Wunderground v.1.13,2013-12-03 00:25:00,
2013-12-02 19:30:00,50.5,36.3,29.80,WNW,295,0.0,10.0,58,0.00,,,0.00,Wunderground v.1.13,2013-12-03 00:30:00,
2013-12-02 19:35:00,50.4,36.6,29.80,WNW,295,0.0,10.0,59,0.00,,,0.00,Wunderground v.1.13,2013-12-03 00:35:00,
2013-12-02 19:40:00,50.2,36.4,29.80,WNW,295,0.0,10.0,59,0.00,,,0.00,Wunderground v.1.13,2013-12-03 00:40:00,
2013-12-02 19:45:00,50.1,36.7,29.80,WNW,295,0.0,10.0,60,0.00,,,0.00,Wunderground v.1.13,2013-12-03 00:45:00,
2013-12-02 19:55:00,49.9,37.0,29.80,WNW,295,0.0,10.0,61,0.00,,,0.00,Wunderground v.1.13,2013-12-03 00:55:00,
2013-12-02 20:00:00,49.8,37.3,29.80,WNW,295,0.0,10.0,62,0.00,,,0.00,Wunderground v.1.13,2013-12-03 01:00:00,
2013-12-02 20:05:00,49.8,37.3,29.80,WNW,295,0.0,10.0,62,0.00,,,0.00,Wunderground v.1.13,2013-12-03 01:05:00,
2013-12-02 20:10:00,49.6,37.1,29.80,WNW,295,0.0,10.0,62,0.00,,,0.00,Wunderground v.1.13,2013-12-03 01:10:00,
2013-12-02 20:15:00,49.5,37.4,29.80,WNW,295,0.0,10.0,63,0.00,,,0.00,Wunderground v.1.13,2013-12-03 01:15:00,
2013-12-02 20:25:00,49.5,37.4,29.80,WNW,295,1.0,1.0,63,0.00,,,0.00,Wunderground v.1.13,2013-12-03 01:25:00,
2013-12-02 20:30:00,49.4,37.7,29.80,WNW,295,0.0,10.0,64,0.00,,,0.00,Wunderground v.1.13,2013-12-03 01:30:00,
2013-12-02 20:35:00,49.4,37.7,29.80,WNW,295,0.0,10.0,64,0.00,,,0.00,Wunderground v.1.13,2013-12-03 01:35:00,
2013-12-02 20:40:00,49.4,38.1,29.80,WNW,295,0.0,10.0,65,0.00,,,0.00,Wunderground v.1.13,2013-12-03 01:40:00,
2013-12-02 20:45:00,49.2,37.9,29.80,WNW,295,0.0,10.0,65,0.00,,,0.00,Wunderground v.1.13,2013-12-03 01:45:00,
2013-12-02 20:50:00,49.1,37.8,29.80,WNW,295,0.0,10.0,65,0.00,,,0.00,Wunderground v.1.13,2013-12-03 01:50:00,
2013-12-02 21:00:00,48.8,38.3,29.80,WNW,295,0.0,10.0,67,0.00,,,0.00,Wunderground v.1.13,2013-12-03 02:00:00,
2013-12-02 21:05:00,48.5,38.4,29.80,WNW,295,0.0,10.0,68,0.00,,,0.00,Wunderground v.1.13,2013-12-03 02:05:00,
2013-12-02 21:10:00,48.3,38.2,29.80,WNW,295,0.0,10.0,68,0.00,,,0.00,Wunderground v.1.13,2013-12-03 02:10:00,
2013-12-02 21:15:00,48.2,38.5,29.80,WNW,295,0.0,10.0,69,0.00,,,0.00,Wunderground v.1.13,2013-12-03 02:15:00,
2013-12-02 21:20:00,48.0,38.3,29.81,WNW,295,0.0,10.0,69,0.00,,,0.00,Wunderground v.1.13,2013-12-03 02:20:00,
2013-12-02 21:25:00,47.9,38.2,29.81,WNW,295,0.0,10.0,69,0.00,,,0.00,Wunderground v.1.13,2013-12-03 02:25:00,
2013-12-02 21:30:00,47.7,38.4,29.81,WNW,295,0.0,10.0,70,0.00,,,0.00,Wunderground v.1.13,2013-12-03 02:30:00,
2013-12-02 21:35:00,47.7,38.4,29.81,WNW,295,0.0,10.0,70,0.00,,,0.00,Wunderground v.1.13,2013-12-03 02:35:00,
2013-12-02 21:40:00,47.6,38.7,29.81,WNW,295,0.0,10.0,71,0.00,,,0.00,Wunderground v.1.13,2013-12-03 02:40:00,
2013-12-02 21:45:00,47.6,38.7,29.81,WNW,295,0.0,10.0,71,0.00,,,0.00,Wunderground v.1.13,2013-12-03 02:45:00,
2013-12-02 21:50:00,47.4,38.5,29.81,WNW,295,0.0,10.0,71,0.00,,,0.00,Wunderground v.1.13,2013-12-03 02:50:00,
2013-12-02 22:00:00,47.3,38.7,29.81,WNW,295,0.0,10.0,72,0.00,,,0.00,Wunderground v.1.13,2013-12-03 03:00:00,
2013-12-02 22:05:00,47.3,38.7,29.81,WNW,295,0.0,10.0,72,0.00,,,0.00,Wunderground v.1.13,2013-12-03 03:05:00,
2013-12-02 22:10:00,47.1,38.5,29.81,WNW,295,0.0,10.0,72,0.00,,,0.00,Wunderground v.1.13,2013-12-03 03:10:00,
2013-12-02 22:15:00,47.1,38.5,29.81,WNW,295,0.0,10.0,72,0.00,,,0.00,Wunderground v.1.13,2013-12-03 03:15:00,
2013-12-02 22:20:00,47.0,38.4,29.81,WNW,295,0.0,10.0,72,0.00,,,0.00,Wunderground v.1.13,2013-12-03 03:20:00,
2013-12-02 22:25:00,47.0,38.4,29.81,WNW,295,0.0,10.0,72,0.00,,,0.00,Wunderground v.1.13,2013-12-03 03:25:00,
2013-12-02 22:35:00,46.7,38.5,29.80,WNW,295,0.0,10.0,73,0.00,,,0.00,Wunderground v.1.13,2013-12-03 03:35:00,
2013-12-02 22:40:00,46.7,38.5,29.80,WNW,295,0.0,10.0,73,0.00,,,0.00,Wunderground v.1.13,2013-12-03 03:40:00,
2013-12-02 22:45:00,46.5,38.3,29.80,WNW,295,0.0,10.0,73,0.00,,,0.00,Wunderground v.1.13,2013-12-03 03:45:00,
2013-12-02 22:50:00,46.4,38.2,29.81,WNW,295,0.0,10.0,73,0.00,,,0.00,Wunderground v.1.13,2013-12-03 03:50:00,
2013-12-02 22:55:00,46.4,38.6,29.81,WNW,295,0.0,10.0,74,0.00,,,0.00,Wunderground v.1.13,2013-12-03 03:55:00,
2013-12-02 23:05:00,46.1,38.6,29.81,WNW,295,0.0,10.0,75,0.00,,,0.00,Wunderground v.1.13,2013-12-03 04:05:00,
2013-12-02 23:10:00,46.1,38.6,29.81,WNW,295,0.0,10.0,75,0.00,,,0.00,Wunderground v.1.13,2013-12-03 04:10:00,
2013-12-02 23:15:00,46.0,38.5,29.81,WNW,295,0.0,10.0,75,0.00,,,0.00,Wunderground v.1.13,2013-12-03 04:15:00,
2013-12-02 23:20:00,45.8,38.7,29.81,WNW,295,0.0,10.0,76,0.00,,,0.00,Wunderground v.1.13,2013-12-03 04:20:00,
2013-12-02 23:25:00,45.8,38.7,29.81,WNW,295,0.0,10.0,76,0.00,,,0.00,Wunderground v.1.13,2013-12-03 04:25:00,
2013-12-02 23:35:00,45.7,38.6,29.81,WNW,295,0.0,10.0,76,0.00,,,0.00,Wunderground v.1.13,2013-12-03 04:35:00,
2013-12-02 23:40:00,45.7,38.6,29.81,WNW,295,0.0,10.0,76,0.00,,,0.00,Wunderground v.1.13,2013-12-03 04:40:00,
2013-12-02 23:45:00,45.7,38.6,29.81,WNW,295,0.0,10.0,76,0.00,,,0.00,Wunderground v.1.13,2013-12-03 04:45:00,
2013-12-02 23:50:00,45.7,38.6,29.81,WNW,295,0.0,10.0,76,0.00,,,0.00,Wunderground v.1.13,2013-12-03 04:50:00,
2013-12-02 23:55:00,45.7,38.6,29.81,WNW,295,0.0,10.0,76,0.00,,,0.00,Wunderground v.1.13,2013-12-03 04:55:00,